Location: ??????
(55.6130°N, 37.7882°E)
Time: 14:45:09
(UTC+00:00)

ISS - Visible Passes

Search period start: 21 June 2024 00:00
Search period end: 01 July 2024 00:00
Orbit: 410 x 425 km, 51.6° (Epoch: 21 June)

Date Brightness Start Highest point End Pass type
(mag) Time Alt. Az. Time Alt. Az. Time Alt. Az.
27 Jun -1.4 23:29:58 10° S 23:31:25 12° SE 23:32:52 10° ESE visible
29 Jun -2.2 23:28:42 10° SSW 23:31:15 21° SSE 23:33:49 10° ESE visible
30 Jun -1.9 22:41:54 14° S 22:43:08 16° SSE 22:45:16 10° ESE visible
